Content
SEND FEEDBACK

Daily
Averages
Monthly
Summary
United States of America

CENTREVILLE, ALABAMA


Home > North America > United States > Alabama
Elevation: 23 feet     Latitude: 32 57N     Longitude: 087 08W

WEATHER
 
SELECT A DAY
Number of Records: 174,832;   Date Range: 6/17/98 - 9/18/14
 
SHARE

PRINT THIS DATA

[ ← Previous Day ]
WEATHER ALMANAC - JANUARY 31, 2013
[ Next Day → ]
[ °C ]   °F
Weather ElementAverageHighLow
Temperature42.6 °F51.1 °F (2:53 pm)34 °F (6:53 am)
Dewpoint26.1 °F28 °F (1:53 am)24.1 °F (11:53 am)
Humidity53.6 %75 % (6:53 am)36 % (3:53 pm)
Barometer30.17 in30.23 in (10:53 am)30.06 in (1:53 am)
Wind Speed6.2 mph13.8 mph (8:53 am)
Wind Gust19.6 mph (8:53 am)
Weather ElementAverage
Visibility10 mi
Wind DirectionSSW (201.4 °)

Weather ElementTotal
Precipitation---
Heating Degree Days22.5 (Base 65)
Averaged from 21 records on January 31, 2013
WEATHER CONDITIONS BREAKOUT
WIND DIRECTION BREAKOUT
WEATHER BY HOUR - JANUARY 31, 2013
[ °C ]   °F
Local TimeTemperatureDewpointHumidityBarometerVisibilityWind DirectionWind SpeedGust SpeedPrecipitationEventsConditions
1:53 AM39.9 °F28.0 °F63 %30.06 in10.0 miWNW (290°)8.1 mphPartly Cloudy
2:53 AM37.9 °F27.0 °F65 %30.07 in10.0 miVariable3.5 mphPartly Cloudy
3:53 AM36.0 °F27.0 °F70 %30.10 in10.0 miCalmClear
4:53 AM36.0 °F26.1 °F67 %30.11 in10.0 miVariable3.5 mphClear
5:53 AM36.0 °F26.1 °F67 %30.11 in10.0 miVariable5.8 mphClear
6:53 AM34.0 °F27.0 °F75 %30.12 in10.0 miWNW (290°)3.5 mphClear
7:53 AM36.0 °F27.0 °F70 %30.15 in10.0 miWest (280°)5.8 mphClear
8:53 AM39.0 °F25.0 °F57 %30.20 in10.0 miNW (310°)13.8 mph19.6 mphClear
9:53 AM41.0 °F25.0 °F53 %30.22 in10.0 miWNW (300°)10.4 mph16.1 mphClear
10:53 AM44.1 °F25.0 °F47 %30.23 in10.0 miWNW (290°)9.2 mphClear
11:53 AM46.9 °F24.1 °F41 %30.21 in10.0 miNW (310°)8.1 mphClear
12:53 PM50.0 °F25.0 °F38 %30.18 in10.0 miNW (310°)8.1 mphClear
1:53 PM50.0 °F25.0 °F38 %30.18 in10.0 miWNW (290°)6.9 mphClear
2:53 PM51.1 °F26.1 °F38 %30.18 in10.0 miWNW (290°)10.4 mphClear
3:53 PM51.1 °F25.0 °F36 %30.17 in10.0 miWest (280°)6.9 mphClear
4:53 PM50.0 °F25.0 °F38 %30.17 in10.0 miVariable6.9 mphClear
6:53 PM46.0 °F26.1 °F46 %30.19 in10.0 miSSW (200°)3.5 mphClear
7:53 PM44.1 °F27.0 °F51 %30.19 in10.0 miSSE (160°)3.5 mphClear
8:53 PM43.0 °F27.0 °F53 %30.20 in10.0 miSSW (200°)4.6 mphClear
9:53 PM42.1 °F27.0 °F55 %30.23 in10.0 miSW (230°)3.5 mphClear
10:53 PM41.0 °F27.0 °F57 %30.23 in10.0 miSSW (200°)3.5 mphClear
Hourly data recorded from KEET, located miles away from Centreville, Alabama







STORIES FROM OUR PARTNERS